This is the latest recevied weather packets stored in our database for station/object EA1RCG-11. If no packets are shown the sender has not sent any weather packets the latest 10 day(s).
| Time | Temp. | Humidity | Pressure | Rain* | Wind** | Luminosity | Snow |
|---|---|---|---|---|---|---|---|
| 1778025882 | 12.78° C | 68% | 980.2 hPa | - | - | - | - |
| 1778024082 | 12.78° C | 67% | 980.3 hPa | - | - | - | - |
| 1778022282 | 12.22° C | 68% | 980.4 hPa | - | - | - | - |
| 1778020482 | 11.67° C | 69% | 980.4 hPa | - | - | - | - |
| 1778018682 | 12.78° C | 68% | 980.4 hPa | - | - | - | - |
| 1778016882 | 12.78° C | 67% | 980.6 hPa | - | - | - | - |
| 1778015081 | 12.78° C | 67% | 980.6 hPa | - | - | - | - |
| 1778013281 | 12.78° C | 68% | 980.3 hPa | - | - | - | - |
| 1778011481 | 13.33° C | 67% | 980.1 hPa | - | - | - | - |
| 1778009681 | 13.89° C | 66% | 979.7 hPa | - | - | - | - |
| 1778007881 | 15° C | 65% | 979.7 hPa | - | - | - | - |
| 1778006081 | 15° C | 65% | 979.5 hPa | - | - | - | - |
| 1778004281 | 15.56° C | 64% | 979.2 hPa | - | - | - | - |
| 1778002481 | 15° C | 64% | 979.4 hPa | - | - | - | - |
| 1778000681 | 15.56° C | 64% | 979.3 hPa | - | - | - | - |
| 1777998880 | 16.11° C | 63% | 979.4 hPa | - | - | - | - |
| 1777997080 | 16.67° C | 62% | 979.4 hPa | - | - | - | - |
| 1777995280 | 16.11° C | 62% | 979.2 hPa | - | - | - | - |
| 1777993480 | 15° C | 65% | 979 hPa | - | - | - | - |
| 1777991680 | 14.44° C | 67% | 978.9 hPa | - | - | - | - |
| 1777989880 | 20° C | 57% | 978.2 hPa | - | - | - | - |
| 1777988080 | 17.78° C | 60% | 978.3 hPa | - | - | - | - |
| 1777986280 | 15.56° C | 64% | 978.1 hPa | - | - | - | - |
| 1777984480 | 20° C | 58% | 977.4 hPa | - | - | - | - |
| 1777982680 | 20° C | 58% | 977.8 hPa | - | - | - | - |
* Rain since midnight (hover to see other rain measurements)
** Current wind speed in m/s (hover to see current wind gust speed)